Location: Newark
(7.0858°N, 171.3717°E)
Time: 02:49:29
(UTC+00:00)

Transit 4A - Pass Details

Date: 30 November 2020
Orbit: 864 x 980 km, 66.8° (Epoch: 20 January)

Event Time Altitude Azimuth Distance (km) Brightness Sun altitude
Rises 19:52:31 0° 232° (SW) 3,559 10.7 17.6°
Reaches altitude 10° 19:55:45 10° 249° (WSW) 2,637 9.9 18.4°
Maximum altitude 20:00:00 19° 293° (WNW) 2,063 9.3 19.3°
Drops below altitude 10° 20:04:21 10° 337° (NNW) 2,686 9.9 20.3°
Sets 20:07:42 0° 354° (N) 3,647 10.7 21.0°
